W3EJE-13 Weather Reports


Display with metric or nautical units.
time (UTC)temp
F
wind
direction
speed
MPH
gust
MPH
rain 1hr
in
rain 24hr
in
rain mn
in
humidity
%
barometer
mb
20260505041601 54 196 1.0 1.0 0.00 0.00 0.00 85 1011.8
20260505041059 54 199 1.0 1.0 0.00 0.00 0.00 85 1011.7
20260505040556 54 197 0.0 0.0 0.00 0.00 0.00 84 1011.9
20260505040053 55 209 0.0 0.0 0.00 0.00 0.00 83 1011.7
20260505035549 55 210 0.0 0.0 0.00 0.00 0.00 82 1011.7
20260505035046 56 215 0.0 0.0 0.00 0.00 0.00 80 1011.7
20260505034542 56 224 0.0 0.0 0.00 0.00 0.00 80 1011.9
20260505034039 57 251 0.0 1.0 0.00 0.00 0.00 79 1011.6
20260505033536 57 253 0.0 0.0 0.00 0.00 0.00 78 1011.7
20260505033034 57 253 0.0 0.0 0.00 0.00 0.00 77 1011.8
20260505032532 58 254 0.0 0.0 0.00 0.00 0.00 76 1012.0
20260505032028 58 253 0.0 0.0 0.00 0.00 0.00 76 1012.0
20260505031526 58 254 0.0 1.0 0.00 0.00 0.00 76 1012.1
20260505031022 58 253 0.0 0.0 0.00 0.00 0.00 75 1012.1
20260505030519 58 253 0.0 0.0 0.00 0.00 0.00 75 1011.9
20260505030015 58 239 0.0 0.0 0.00 0.00 0.00 75 1012.1
20260505025511 59 248 0.0 0.0 0.00 0.00 0.00 74 1011.8
20260505025010 59 240 0.0 0.0 0.00 0.00 0.00 74 1011.8
20260505024506 59 261 0.0 1.0 0.00 0.00 0.00 73 1011.8
20260505024003 60 256 0.0 1.0 0.00 0.00 0.00 73 1011.7
20260505023500 60 265 1.0 1.0 0.00 0.00 0.00 72 1012.1
20260505022958 60 255 1.0 2.0 0.00 0.00 0.00 72 1012.0
20260505022455 60 281 1.0 2.0 0.00 0.00 0.00 72 1012.1
20260505021952 60 262 2.0 2.0 0.00 0.00 0.00 72 1012.0
20260505021449 60 255 2.0 3.0 0.00 0.00 0.00 73 1011.9
20260505020944 60 7 2.0 2.0 0.00 0.00 0.00 72 1012.1
20260505020440 61 268 2.0 2.0 0.00 0.00 0.00 72 1012.1
20260505015937 61 284 1.0 2.0 0.00 0.00 0.00 71 1012.0
20260505015434 61 275 3.0 3.0 0.00 0.00 0.00 70 1012.0
20260505014931 61 257 1.0 2.0 0.00 0.00 0.00 71 1012.1
20260505014428 61 248 0.0 0.0 0.00 0.00 0.00 71 1011.8
20260505013925 61 285 1.0 2.0 0.00 0.00 0.00 71 1011.8
20260505013422 61 281 2.0 2.0 0.00 0.00 0.00 70 1011.8
20260505012920 61 271 1.0 2.0 0.00 0.00 0.00 70 1011.6
20260505012418 61 253 1.0 2.0 0.00 0.00 0.00 71 1011.6
20260505011914 62 263 1.0 1.0 0.00 0.00 0.00 70 1011.4
20260505011410 62 254 1.0 1.0 0.00 0.00 0.00 68 1011.4
20260505010907 62 245 0.0 1.0 0.00 0.00 0.00 68 1011.3
20260505010403 62 190 2.0 3.0 0.00 0.00 0.00 68 1011.3
20260505005859 62 254 1.0 1.0 0.00 0.00 0.00 69 1011.4
20260505005356 62 269 1.0 1.0 0.00 0.00 0.00 68 1011.1
20260505004854 63 253 0.0 1.0 0.00 0.00 0.00 67 1011.3
20260505004349 63 302 0.0 0.0 0.00 0.00 0.00 67 1011.2
20260505003847 64 256 2.0 2.0 0.00 0.00 0.00 66 1011.3
20260505003344 64 243 1.0 2.0 0.00 0.00 0.00 66 1011.3
20260505002840 64 267 2.0 2.0 0.00 0.00 0.00 65 1011.7
20260505002337 64 293 2.0 3.0 0.00 0.00 0.00 65 1011.4
20260505001836 64 262 1.0 2.0 0.00 0.00 0.00 66 1011.5
20260505001332 64 262 4.0 5.0 0.00 0.00 0.00 65 1011.5
20260505000829 64 264 2.0 3.0 0.00 0.00 0.00 65 1011.2
20260505000327 64 283 2.0 2.0 0.00 0.00 0.00 66 1010.9
20260504235824 65 253 0.0 1.0 0.00 0.00 0.00 65 1011.2
20260504235321 65 291 2.0 2.0 0.00 0.00 0.00 64 1011.0
20260504234817 65 316 2.0 2.0 0.00 0.00 0.00 64 1011.0
20260504234315 65 355 6.0 7.0 0.00 0.00 0.00 62 1011.0
20260504233811 65 10 4.0 6.0 0.00 0.00 0.00 63 1010.9
20260504233307 66 303 0.0 0.0 0.00 0.00 0.00 62 1011.0
20260504232804 66 292 5.0 6.0 0.00 0.00 0.00 61 1011.1
20260504232303 67 330 3.0 5.0 0.00 0.00 0.00 61 1011.1
20260504231758 67 265 3.0 3.0 0.00 0.00 0.00 61 1011.2
20260504231254 68 283 2.0 2.0 0.00 0.00 0.00 60 1011.2
20260504230750 68 291 8.0 9.0 0.00 0.00 0.00 60 1010.8
20260504230249 67 322 3.0 5.0 0.00 0.00 0.00 62 1010.8
20260504225747 67 314 5.0 6.0 0.00 0.00 0.00 60 1011.0
20260504225243 66 279 5.0 7.0 0.00 0.00 0.00 60 1011.0
20260504224740 66 269 3.0 5.0 0.00 0.00 0.00 62 1010.9
20260504224238 67 263 3.0 3.0 0.00 0.00 0.00 60 1011.0
20260504223734 68 293 5.0 7.0 0.00 0.00 0.00 58 1010.8
20260504223229 68 277 3.0 3.0 0.00 0.00 0.00 59 1010.7
20260504222727 68 310 8.0 10.0 0.00 0.00 0.00 59 1010.8
20260504222223 69 301 4.0 6.0 0.00 0.00 0.00 58 1010.8
20260504221721 69 252 5.0 8.0 0.00 0.00 0.00 57 1010.9
20260504221218 69 258 4.0 5.0 0.00 0.00 0.00 57 1010.8
20260504220714 70 300 4.0 6.0 0.00 0.00 0.00 55 1010.9
20260504220212 69 288 4.0 5.0 0.00 0.00 0.00 58 1010.9
20260504215709 71 248 1.0 2.0 0.00 0.00 0.00 55 1010.8
20260504215206 70 239 5.0 6.0 0.00 0.00 0.00 55 1010.8
20260504214701 70 239 3.0 3.0 0.00 0.00 0.00 55 1011.1
20260504214158 69 280 4.0 6.0 0.00 0.00 0.00 56 1011.0
20260504213654 68 259 4.0 7.0 0.00 0.00 0.00 58 1011.1
20260504213151 70 252 4.0 7.0 0.00 0.00 0.00 55 1010.9
20260504212648 68 327 7.0 9.0 0.00 0.00 0.00 57 1010.9
20260504212144 70 265 5.0 8.0 0.00 0.00 0.00 55 1011.0
20260504211642 69 302 4.0 5.0 0.00 0.00 0.00 57 1011.0
20260504211138 68 344 5.0 8.0 0.00 0.00 0.00 57 1010.9
20260504210636 70 234 5.0 8.0 0.00 0.00 0.00 55 1010.9
20260504210132 70 306 6.0 8.0 0.00 0.00 0.00 56 1010.9
20260504205630 70 302 7.0 8.0 0.00 0.00 0.00 58 1010.9
20260504205127 70 293 10.0 10.0 0.00 0.00 0.00 58 1010.9
20260504204626 69 288 5.0 7.0 0.00 0.00 0.00 59 1010.9
20260504204124 70 331 3.0 5.0 0.00 0.00 0.00 55 1010.7
20260504203622 70 357 6.0 10.0 0.00 0.00 0.00 56 1010.6
20260504203120 68 256 3.0 5.0 0.00 0.00 0.00 60 1010.6
20260504202614 68 2 7.0 9.0 0.00 0.00 0.00 59 1010.5
20260504202111 68 289 3.0 5.0 0.00 0.00 0.00 59 1010.7
20260504201608 68 276 4.0 6.0 0.00 0.00 0.00 59 1010.9
20260504201106 68 163 4.0 6.0 0.00 0.00 0.00 57 1010.8
20260504200603 69 224 2.0 3.0 0.00 0.00 0.00 56 1011.0
20260504200059 69 202 3.0 5.0 0.00 0.00 0.00 59 1011.0
20260504195555 69 53 3.0 3.0 0.00 0.00 0.00 57 1010.9
20260504195052 70 240 5.0 7.0 0.00 0.00 0.00 57 1011.1
20260504194549 69 313 9.0 11.0 0.00 0.00 0.00 58 1011.0
20260504194044 70 310 3.0 3.0 0.00 0.00 0.00 56 1011.1
20260504193541 70 292 5.0 6.0 0.00 0.00 0.00 57 1011.1
20260504193040 70 179 3.0 6.0 0.00 0.00 0.00 55 1011.0
20260504192537 69 157 3.0 6.0 0.00 0.00 0.00 56 1011.2
20260504192035 69 262 2.0 3.0 0.00 0.00 0.00 58 1011.4
20260504191533 69 259 4.0 5.0 0.00 0.00 0.00 59 1011.5
20260504191029 68 312 2.0 5.0 0.00 0.00 0.00 57 1011.4
20260504190525 67 248 1.0 2.0 0.00 0.00 0.00 58 1011.5
20260504190021 68 337 3.0 6.0 0.00 0.00 0.00 58 1011.8
20260504185518 68 318 5.0 7.0 0.00 0.00 0.00 58 1011.5
20260504185015 69 298 6.0 8.0 0.00 0.00 0.00 56 1011.8
20260504184510 69 237 1.0 3.0 0.00 0.00 0.00 57 1011.8
20260504184006 68 264 3.0 3.0 0.00 0.00 0.00 57 1011.5
20260504183503 68 271 5.0 8.0 0.00 0.00 0.00 57 1011.9
20260504183002 67 262 5.0 8.0 0.00 0.00 0.00 57 1012.1
20260504182458 68 337 5.0 6.0 0.00 0.00 0.00 57 1011.9
20260504181955 67 291 8.0 11.0 0.00 0.00 0.00 59 1012.1
20260504181452 66 317 3.0 6.0 0.00 0.00 0.00 57 1012.1
20260504180951 67 43 5.0 7.0 0.00 0.00 0.00 58 1012.4
20260504180449 66 275 3.0 5.0 0.00 0.00 0.00 58 1012.4
20260504175947 67 348 9.0 9.0 0.00 0.00 0.00 57 1012.3
20260504175444 67 300 7.0 9.0 0.00 0.00 0.00 58 1012.1
20260504174942 67 279 4.0 7.0 0.00 0.00 0.00 56 1012.3
20260504174439 66 262 5.0 6.0 0.00 0.00 0.00 57 1012.4
20260504173936 67 304 5.0 6.0 0.00 0.00 0.00 55 1012.4
20260504173432 66 310 4.0 6.0 0.00 0.00 0.00 56 1012.5
20260504172930 65 248 8.0 9.0 0.00 0.00 0.00 57 1012.5
20260504172426 65 279 3.0 5.0 0.00 0.00 0.00 57 1012.6
20260504171923 66 271 6.0 8.0 0.00 0.00 0.00 57 1012.7
20260504171420 65 196 2.0 2.0 0.00 0.00 0.00 57 1012.6
20260504170917 65 334 3.0 5.0 0.00 0.00 0.00 57 1012.5
20260504170413 67 253 7.0 10.0 0.00 0.00 0.00 55 1012.8
20260504160332 64 331 9.0 10.0 0.00 0.00 0.00 58 1013.4
20260504150756 60 288 5.0 8.0 0.00 0.00 0.00 57 1013.7
20260504150253 59 261 8.0 10.0 0.00 0.00 0.00 59 1013.8
20260504141223 60 297 5.0 7.0 0.00 0.00 0.00 57 1014.1
20260504140720 60 276 5.0 6.0 0.00 0.00 0.00 57 1014.1
20260504140215 59 263 4.0 6.0 0.00 0.00 0.00 59 1013.9
20260504130644 54 249 3.0 5.0 0.00 0.00 0.00 66 1014.3
20260504130140 54 264 2.0 3.0 0.00 0.00 0.00 65 1014.1
20260504120104 47 267 0.0 0.0 0.00 0.00 0.00 79 1014.8
20260504110532 39 223 0.0 0.0 0.00 0.00 0.00 91 1014.9
20260504100454 38 232 0.0 0.0 0.00 0.00 0.00 93 1014.6
20260504081847 37 255 0.0 0.0 0.00 0.00 0.00 96 1015.4
20260504081343 37 255 0.0 0.0 0.00 0.00 0.00 96 1015.3
20260504080839 37 255 0.0 0.0 0.00 0.00 0.00 96 1015.4
20260504080337 37 255 0.0 0.0 0.00 0.00 0.00 96 1015.6
20260504070304 34 247 0.0 0.0 0.00 0.00 0.00 97 1015.7
20260504060224 35 243 0.0 0.0 0.00 0.00 0.00 94 1015.9
20260504050652 36 260 0.0 0.0 0.00 0.00 0.00 93 1016.3
20260504050149 36 260 0.0 0.0 0.00 0.00 0.00 93 1016.2
20260504045646 36 260 0.0 0.0 0.00 0.00 0.00 93 1016.5
20260504045146 36 260 0.0 0.0 0.00 0.00 0.00 93 1016.3
20260504044644 36 260 0.0 0.0 0.00 0.00 0.00 93 1016.5
20260504044141 36 260 0.0 0.0 0.00 0.00 0.00 93 1016.2
20260504043638 36 260 0.0 0.0 0.00 0.00 0.00 93 1016.3
20260504043135 36 260 0.0 0.0 0.00 0.00 0.00 93 1016.2
20260504042632 36 260 0.0 0.0 0.00 0.00 0.00 92 1016.0